Regional Weather Roundup
Issued by NWS Goodland, KS

Home | Current Version | Previous Version | Text Only | Print | Product List | Glossary On
Versions: 1 2 3 4 5 6 7 8 9 10 11 12 13 14 15 16 17 18 19 20 21 22 23 24 25 26 27 28 29 30 31 32 33 34 35 36 37 38 39 40 41 42 43 44 45 46 47 48 49 50
000
ASUS43 KGLD 122108
RWRGLD

GOODLAND FORECAST AREA HOURLY WEATHER ROUNDUP
NATIONAL WEATHER SERVICE GOODLAND KS
200 PM MST TUE DEC 12 2017

...OFFICIAL OBSERVATIONS...

CITY           SKY/WX    TMP DP  RH WIND       PRES   REMARKS
GOODLAND KS    SUNNY     65  17  15 NW8       30.14F
HILL CITY KS   SUNNY     61  20  20 VRB7      30.13F
IMPERIAL NEB   SUNNY     64  17  16 NW9       30.10F
MCCOOK NEB     SUNNY     57  21  24 W10       30.10F
AKRON CO       SUNNY     64  12  13 MISG      30.16F
BURLINGTON CO  SUNNY     65  16  15 N9        30.17F
LIMON CO       SUNNY     66  14  13 N12       30.21F
$$

...UNOFFICIAL OBSERVATIONS...

CITY           SKY/WX    TMP DP  RH WIND       PRES   REMARKS
COLBY KS       SUNNY     63  25  23 NW8       30.15F
LENORA KS        N/A     58  32  37 W5          N/A
NORTON KS      SUNNY     57  10  15 SW7       30.10
SHARON SPRINGS   N/A     65  20  18 NW7         N/A
TRENTON NEB      N/A     61  32  33 NW5         N/A
KIT CARSON CO    N/A     65  20  18 MISG        N/A
YUMA CO        FAIR      63  14  15 NW13G18   30.15F
$$



USA.gov is the U.S. government's official web portal to all federal, state and local government web resources and services.